• In Belarus
  • List of Countries
  • For 7 days
  • Water Temperature
  • Satellite Maps
  • Weather Map
  • Weather Widgets
  • user-avatar
    Login

    Hourly Weather Wiktoria

    Today, 17 October, Tuesday

    Time Temperature Precipitation Wind Pressure Humidity
    00:00 +16°C° 0 mm 2 mps 755 mmHg 86%
    01:00 +15°C° 0 mm 2 mps 755 mmHg 87%
    02:00 +14°C° 0 mm 3 mps 755 mmHg 87%
    03:00 +13°C° 0 mm 3 mps 756 mmHg 87%
    04:00 +13°C° 0 mm 2 mps 755 mmHg 93%
    05:00 +13°C° 0 mm 3 mps 755 mmHg 90%
    06:00 +13°C° 0 mm 4 mps 756 mmHg 86%
    07:00 +14°C° 0 mm 4 mps 756 mmHg 83%
    08:00 +17°C° 0 mm 4 mps 756 mmHg 76%
    09:00 +19°C° 0 mm 4 mps 756 mmHg 69%
    10:00 +22°C° 0 mm 4 mps 756 mmHg 61%
    11:00 +23°C° 0 mm 4 mps 755 mmHg 57%
    12:00 +26°C° 0 mm 4 mps 755 mmHg 53%
    13:00 +27°C° 0 mm 4 mps 755 mmHg 50%
    14:00 +27°C° 0 mm 3 mps 754 mmHg 51%
    15:00 +27°C° 0 mm 3 mps 754 mmHg 52%
    16:00 +27°C° 0 mm 3 mps 753 mmHg 55%
    17:00 +25°C° 0 mm 3 mps 754 mmHg 60%
    18:00 +21°C° 0 mm 2 mps 754 mmHg 66%
    19:00 +19°C° 0 mm 2 mps 754 mmHg 72%
    20:00 +18°C° 0 mm 2 mps 754 mmHg 70%
    21:00 +17°C° 0 mm 3 mps 755 mmHg 67%
    22:00 +16°C° 0 mm 3 mps 755 mmHg 65%
    23:00 +16°C° 0 mm 3 mps 755 mmHg 66%

    Tomorrow, 18 October, Wednesday

    Time Temperature Precipitation Wind Pressure Humidity
    00:00 +14°C° 0 mm 3 mps 755 mmHg 66%
    01:00 +14°C° 0 mm 3 mps 755 mmHg 67%
    02:00 +14°C° 0 mm 3 mps 755 mmHg 67%
    03:00 +14°C° 0 mm 4 mps 755 mmHg 68%
    04:00 +14°C° 0 mm 4 mps 755 mmHg 69%
    05:00 +14°C° 0 mm 4 mps 755 mmHg 71%
    06:00 +15°C° 0 mm 4 mps 756 mmHg 73%
    07:00 +15°C° 0 mm 5 mps 756 mmHg 75%
    08:00 +17°C° 0 mm 5 mps 756 mmHg 71%
    09:00 +20°C° 0 mm 5 mps 756 mmHg 68%
    10:00 +22°C° 0 mm 5 mps 756 mmHg 64%
    11:00 +25°C° 0 mm 5 mps 755 mmHg 61%
    12:00 +26°C° 0 mm 4 mps 755 mmHg 58%
    13:00 +28°C° 0 mm 4 mps 754 mmHg 55%
    14:00 +28°C° 0 mm 4 mps 753 mmHg 55%
    15:00 +28°C° 0 mm 4 mps 753 mmHg 55%
    16:00 +28°C° 0 mm 4 mps 752 mmHg 56%
    17:00 +26°C° 0 mm 4 mps 752 mmHg 58%
    18:00 +23°C° 0 mm 4 mps 752 mmHg 61%
    19:00 +21°C° 0 mm 4 mps 753 mmHg 64%
    20:00 +21°C° 0 mm 4 mps 753 mmHg 62%
    21:00 +20°C° 0 mm 4 mps 753 mmHg 60%
    22:00 +20°C° 0 mm 4 mps 753 mmHg 58%
    23:00 +20°C° 0 mm 4 mps 753 mmHg 57%

    Day after tomorrow, 19 October, Thursday

    Time Temperature Precipitation Wind Pressure Humidity
    00:00 +20°C° 0 mm 4 mps 752 mmHg 55%
    01:00 +20°C° 0 mm 5 mps 752 mmHg 53%
    02:00 +21°C° 0 mm 5 mps 752 mmHg 53%
    03:00 +21°C° 0 mm 5 mps 752 mmHg 52%
    04:00 +21°C° 0 mm 6 mps 751 mmHg 52%
    05:00 +20°C° 0.2 mm 5 mps 752 mmHg 59%
    06:00 +19°C° 0.2 mm 5 mps 752 mmHg 67%
    07:00 +19°C° 0.2 mm 4 mps 752 mmHg 75%
    08:00 +19°C° 1 mm 4 mps 753 mmHg 81%
    09:00 +20°C° 1 mm 4 mps 753 mmHg 86%
    10:00 +20°C° 1 mm 4 mps 753 mmHg 92%
    11:00 +20°C° 2.2 mm 5 mps 753 mmHg 93%
    12:00 +21°C° 2.2 mm 5 mps 752 mmHg 94%
    13:00 +21°C° 2.2 mm 5 mps 752 mmHg 95%
    14:00 +21°C° 2.9 mm 5 mps 752 mmHg 95%
    15:00 +21°C° 2.9 mm 5 mps 752 mmHg 95%
    16:00 +21°C° 2.9 mm 4 mps 751 mmHg 95%
    17:00 +20°C° 2.2 mm 4 mps 752 mmHg 96%
    18:00 +20°C° 2.2 mm 3 mps 752 mmHg 96%
    19:00 +19°C° 2.2 mm 3 mps 752 mmHg 96%
    20:00 +18°C° 0.2 mm 3 mps 753 mmHg 96%
    21:00 +17°C° 0.2 mm 4 mps 754 mmHg 95%
    22:00 +15°C° 0.2 mm 4 mps 754 mmHg 94%
    23:00 +14°C° 0 mm 4 mps 754 mmHg 93%

    20 October, Friday

    Time Temperature Precipitation Wind Pressure Humidity
    00:00 +13°C° 0 mm 5 mps 754 mmHg 92%
    01:00 +12°C° 0 mm 5 mps 754 mmHg 91%
    02:00 +10°C° 0 mm 5 mps 754 mmHg 91%
    03:00 +9°C° 0 mm 5 mps 754 mmHg 90%
    04:00 +8°C° 0 mm 5 mps 754 mmHg 90%
    05:00 +8°C° 0 mm 5 mps 755 mmHg 88%
    06:00 +9°C° 0 mm 5 mps 755 mmHg 86%
    07:00 +9°C° 0 mm 6 mps 756 mmHg 84%
    08:00 +11°C° 0 mm 6 mps 756 mmHg 77%
    09:00 +14°C° 0 mm 7 mps 756 mmHg 70%
    10:00 +16°C° 0 mm 7 mps 756 mmHg 63%
    11:00 +17°C° 0 mm 8 mps 756 mmHg 59%
    12:00 +18°C° 0 mm 8 mps 755 mmHg 55%
    13:00 +20°C° 0 mm 8 mps 755 mmHg 52%
    14:00 +18°C° 0 mm 8 mps 755 mmHg 52%
    15:00 +18°C° 0 mm 8 mps 754 mmHg 52%
    16:00 +18°C° 0 mm 8 mps 754 mmHg 52%
    17:00 +16°C° 0 mm 7 mps 755 mmHg 52%
    18:00 +15°C° 0 mm 7 mps 755 mmHg 53%
    19:00 +13°C° 0 mm 6 mps 756 mmHg 54%
    20:00 +11°C° 0 mm 6 mps 756 mmHg 59%
    21:00 +10°C° 0 mm 5 mps 757 mmHg 64%
    22:00 +9°C° 0 mm 5 mps 757 mmHg 69%
    23:00 +8°C° 0 mm 5 mps 757 mmHg 74%

    21 October, Saturday

    Time Temperature Precipitation Wind Pressure Humidity
    00:00 +7°C° 0 mm 4 mps 757 mmHg 78%
    01:00 +7°C° 0 mm 4 mps 757 mmHg 83%
    02:00 +6°C° 0 mm 4 mps 757 mmHg 86%
    03:00 +5°C° 0 mm 3 mps 756 mmHg 89%
    04:00 +5°C° 0 mm 3 mps 756 mmHg 92%
    05:00 +7°C° 0 mm 3 mps 756 mmHg 88%
    06:00 +7°C° 0 mm 4 mps 757 mmHg 84%
    07:00 +8°C° 0 mm 4 mps 757 mmHg 80%
    08:00 +11°C° 0 mm 4 mps 756 mmHg 73%
    09:00 +13°C° 0 mm 4 mps 756 mmHg 66%
    10:00 +15°C° 0 mm 4 mps 756 mmHg 59%
    11:00 +16°C° 0 mm 5 mps 755 mmHg 57%
    12:00 +19°C° 0 mm 5 mps 755 mmHg 55%
    13:00 +20°C° 0 mm 5 mps 754 mmHg 53%
    14:00 +19°C° 0 mm 6 mps 753 mmHg 55%
    15:00 +19°C° 0 mm 6 mps 753 mmHg 56%
    16:00 +17°C° 0 mm 7 mps 752 mmHg 57%
    17:00 +15°C° 0 mm 7 mps 753 mmHg 60%
    18:00 +14°C° 0 mm 6 mps 753 mmHg 64%
    19:00 +11°C° 0 mm 6 mps 753 mmHg 67%
    20:00 +10°C° 0 mm 6 mps 753 mmHg 71%
    21:00 +9°C° 0 mm 5 mps 753 mmHg 74%
    22:00 +9°C° 0 mm 5 mps 753 mmHg 78%
    23:00 +8°C° 0 mm 4 mps 753 mmHg 82%

    22 October, Sunday

    Time Temperature Precipitation Wind Pressure Humidity
    00:00 +8°C° 0 mm 4 mps 752 mmHg 86%
    01:00 +7°C° 0 mm 4 mps 752 mmHg 89%
    02:00 +8°C° 0 mm 3 mps 752 mmHg 91%
    03:00 +8°C° 0 mm 3 mps 752 mmHg 93%
    04:00 +7°C° 0 mm 3 mps 751 mmHg 95%
    05:00 +8°C° 0 mm 3 mps 751 mmHg 91%
    06:00 +8°C° 0 mm 4 mps 752 mmHg 87%
    07:00 +10°C° 0 mm 4 mps 752 mmHg 84%
    08:00 +12°C° 0 mm 4 mps 752 mmHg 77%
    09:00 +14°C° 0 mm 4 mps 751 mmHg 70%
    10:00 +16°C° 0 mm 5 mps 751 mmHg 64%
    11:00 +16°C° 0 mm 5 mps 751 mmHg 63%
    12:00 +17°C° 0 mm 5 mps 750 mmHg 61%
    13:00 +17°C° 0 mm 6 mps 750 mmHg 60%
    14:00 +17°C° 0 mm 6 mps 750 mmHg 60%
    15:00 +17°C° 0 mm 6 mps 749 mmHg 60%
    16:00 +17°C° 0 mm 6 mps 749 mmHg 61%
    17:00 +15°C° 0 mm 5 mps 749 mmHg 66%
    18:00 +14°C° 0 mm 5 mps 750 mmHg 71%
    19:00 +12°C° 0 mm 4 mps 750 mmHg 77%
    20:00 +12°C° 0 mm 4 mps 750 mmHg 80%
    21:00 +11°C° 0 mm 4 mps 750 mmHg 84%
    22:00 +10°C° 0 mm 4 mps 751 mmHg 88%
    23:00 +10°C° 0 mm 3 mps 750 mmHg 90%
    Show more